Location: Unspecified
(0.0000°N, 0.0000°E)
Time: 03:04:53
(UTC+00:00)

Explorer 7 - All Passes

Search period start: 31 July 2015 00:00
Search period end: 10 August 2015 00:00
Orbit: 488 x 693 km, 50.3° (Epoch: 30 July)

Date Brightness Start Highest point End Pass type
(mag) Time Alt. Az. Time Alt. Az. Time Alt. Az.
31 Jul - 02:46:47 10° NNW 02:51:21 46° NE 02:55:43 10° SE night (unlit)
31 Jul - 04:30:01 10° WSW 04:32:02 12° SW 04:33:45 10° SSW night (unlit)
31 Jul - 14:50:28 10° SSW 14:54:23 65° SE 14:58:33 10° NE daylight
01 Aug - 02:54:09 10° NW 02:58:56 79° SW 03:03:27 10° SSE night (unlit)
01 Aug - 14:58:05 10° SW 15:01:57 49° NW 15:06:01 10° NNE daylight
02 Aug - 01:22:37 10° N 01:25:42 17° NE 01:28:52 10° E night (unlit)
02 Aug - 03:02:06 10° WNW 03:06:29 35° SW 03:10:37 10° SSE night (unlit)
02 Aug - 13:26:14 10° S 13:29:00 19° SE 13:31:59 10° E daylight
02 Aug - 15:06:28 10° WSW 15:09:36 21° NW 15:12:46 10° N daylight
03 Aug - 01:28:59 10° NNW 01:33:24 35° NE 01:37:41 10° ESE night (unlit)
03 Aug - 03:10:55 10° W 03:14:05 17° SW 03:16:58 10° SSW night (unlit)
03 Aug - 13:32:51 10° SSW 13:36:34 45° SE 13:40:29 10° NE daylight
04 Aug - 01:36:07 10° NNW 01:40:59 77° NE 01:45:37 10° SE night (unlit)
04 Aug - 13:40:15 10° SW 13:44:06 70° NW 13:48:09 10° NNE daylight
05 Aug - 00:05:23 10° NNE 00:07:39 13° NE 00:10:10 10° E night (unlit)
05 Aug - 01:43:49 10° NW 01:48:32 48° SW 01:53:00 10° SSE night (unlit)
05 Aug - 12:09:13 10° SSE 12:11:08 14° SE 12:13:16 10° E daylight
05 Aug - 13:48:18 10° WSW 13:51:42 28° NW 13:55:11 10° N daylight
06 Aug - 00:11:15 10° N 00:15:23 27° NE 00:19:28 10° ESE night (unlit)
06 Aug - 01:52:13 10° WNW 01:56:06 23° SW 01:59:44 10° S night (unlit)
06 Aug - 12:15:19 10° S 12:18:44 31° SE 12:22:17 10° ENE daylight
06 Aug - 13:57:38 10° WNW 13:59:24 12° NW 14:00:59 10° NNW daylight
07 Aug - 00:18:08 10° NNW 00:22:59 58° NE 00:27:41 10° SE night (unlit)
07 Aug - 02:02:20 10° WSW 02:03:45 11° SW 02:04:51 10° SW night (unlit)
07 Aug - 12:22:27 10° SW 12:26:15 83° SE 12:30:13 10° NE daylight
07 Aug - 22:49:04 10° NE 22:49:34 10° NE 22:50:26 10° ENE night (unlit)
08 Aug - 00:25:38 10° NW 00:30:32 66° SW 00:35:15 10° SSE night (unlit)
08 Aug - 12:30:15 10° WSW 12:33:48 37° NW 12:37:29 10° NNE daylight
08 Aug - 22:53:37 10° N 22:57:19 21° NE 23:01:05 10° ESE night (unlit)
09 Aug - 00:33:43 10° WNW 00:38:04 31° SW 00:42:14 10° S night (unlit)
09 Aug - 10:57:52 10° S 11:00:51 22° SE 11:03:58 10° ENE daylight
09 Aug - 12:38:56 10° W 12:41:27 16° NW 12:43:52 10° NNW daylight
09 Aug - 23:00:14 10° NNW 23:04:57 44° NE 23:09:35 10° SE night (unlit)
